ROMMA est une association bénévole à but non lucratif. Votre soutien est indispensable : ADHERER à ROMMA ou FAIRE un DON

Le Versoud - (38, Isère)

Vallée du Grésivaudan (220 m)   Longitude: 05° 51' 44" E   Latitude: 45° 13' 06" N Station partenaire n°6
 

Détail journalier du     <<     >>

Température Precipitation Humidité Pression Vent Dir Rafale Dir. rafale Ensol.
Heure (°C) (mm) (%) (hPa) (km/h) (km/h) (min)
01:00 6.5088102208NE0
02:00 6.20901022011SSE0
03:00 5.9091102202SSE0
04:00 5.4093102100---0
05:00 4.3093102100---0
06:00 4.3092102200---0
07:00 4.0094102100---0
08:00 3.9094102100---0
09:00 5.0091102108SSE0
10:00 6.1087102100---0
11:00 7.60841022011ONO15
12:00 9.507210221E11NE40
13:00 9.807010211NNE13N10
14:00 10.5068102008OSO0
15:00 8.90.885102006OSO0
16:00 8.60.286102102O0
17:00 8.8085102106N0
18:00 8.4084102100---5
19:00 8.1089102200---0
20:00 7.7091102300---0
21:00 6.7090102300---0
22:00 5.4092102300---0
23:00 4.6092102300---0
minuit 3.8093102300---0

Graphique du 02-03-2019

 

Serveur OMMA